sat.trackr.live / text

‹ back to catalog

HULIANWANG DIGUI-155

NORAD 68129 · 2026-047A

PAYLOAD ACTIVE UNKNOWN

§ Identity

Operator
Country
PRC
Launch date
2026-03-12
Launch site
WSC
Launch vehicle
Mass (kg)
RCS (m²)

External: N2YO · Heavens-Above · Gunter

§ Orbital elements

Epoch: 2026-05-25T05:23:09.525984Z

Period
108.33 min
Inclination
50.0008°
Eccentricity
0.0000220
Mean motion
13.29330425 rev/d
Perigee alt
1,149.1 km
Apogee alt
1,149.5 km
Semi-major
7,527.4 km
B*
8.0077e-5
RAAN
138.7438°
Arg perigee
359.6963°
Mean anomaly
0.3909°
Rev number
1,001

§ Raw data

HULIANWANG DIGUI-1551 68129U 26047A   26145.22441581 -.00000087  00000+0  80077-4 0  99912 68129  50.0008 138.7438 0000220 359.6963   0.3909 13.29330425 10015

JSON: /api/v1/satellites/68129 · /tle

For live sub-satellite position, see the globe view (requires WebGL).

§ Visibility from observer

Set your observer location to see the next 7 days of passes ≥ 10°. The values pass through the URL so the page stays shareable.

No JS? Fill the form by hand. The geolocation button needs JavaScript.